Change the Weather History Date:

Saturday, December 29, 2012

  Actual Average Record
Temperature  
Mean Temperature 33 °F 36 °F  
Max Temperature 47 °F 49 °F 74 °F (1965)
Min Temperature 18 °F 23 °F -5 °F (1983)
Degree Days  
Heating Degree Days 32 29  
Month to date heating degree days 653 815  
Since 1 July heating degree days 1292 1659  
Cooling Degree Days 0 0  
Month to date cooling degree days 0 0  
Year to date cooling degree days 2011 1399  
Moisture  
Dew Point 14 °F    
Average Humidity 53    
Maximum Humidity 80    
Minimum Humidity 25    
Precipitation  
Precipitation 0.00 in 0.02 in 0.95 in (2006)
Month to date precipitation 0.26 0.67  
Year to date precipitation 12.05 20.32  
Snow  
Snow 0.00 in 0.10 in 2.50 in (1958)
Month to date snowfall 2.1 3.5  
Since 1 July snowfall 2.1 6.2  
Snow Depth 0.00 in    
Sea Level Pressure  
Sea Level Pressure 30.32 in    
Wind  
Wind Speed 9 mph (SW)    
Max Wind Speed 18 mph    
Max Gust Speed 22 mph    
Visibility 10 miles    
Events      
T = Trace of Precipitation, MM = Missing Value Source: NWS Daily Summary

Daily Weather History Graph

Daily Weather History Graph

Search for Another Location

Airport or City:

Trip Planner

Search our weather history database for the weather conditions in past years. The results will help you decide how hot, cold, wet, or windy it might be!

Date:

Astronomy

Dec. 29, 2012 Rise Set
Actual Time 7:54 AM CST 5:43 PM CST
Civil Twilight 7:26 AM CST 6:11 PM CST
Nautical Twilight 6:54 AM CST 6:43 PM CST
Astronomical Twilight 6:24 AM CST 7:14 PM CST
Moon 7:14 PM CST (12/29) 8:32 AM CST (12/29)
Length of Visible Light 10h 45m
Length of Day
9h 48m
Full, 98% of the Moon is Illuminated
Dec 29
Full
Jan 4
Last Quarter
Jan 11
New
Jan 18
First Quarter
Jan 26
Full

Hourly Weather History & Observations

Time (CST) Temp. Windchill Dew Point Humidity Pressure Visibility Wind Dir Wind Speed Gust Speed Precip Events Conditions
12:53 AM 21.9 °F 12.5 °F 15.1 °F 75% 30.26 in 10.0 mi West 8.1 mph - N/A   Partly Cloudy
1:53 AM 25.0 °F 16.3 °F 15.1 °F 66% 30.27 in 10.0 mi West 8.1 mph - N/A   Mostly Cloudy
2:53 AM 21.9 °F 15.7 °F 15.1 °F 75% 30.28 in 10.0 mi NNW 4.6 mph - N/A   Clear
3:53 AM 25.0 °F 14.8 °F 15.1 °F 66% 30.29 in 10.0 mi WNW 10.4 mph - N/A   Clear
4:53 AM 25.0 °F 14.8 °F 15.1 °F 66% 30.30 in 10.0 mi WNW 10.4 mph - N/A   Clear
5:53 AM 19.9 °F 12.1 °F 12.9 °F 74% 30.33 in 10.0 mi WNW 5.8 mph - N/A   Clear
6:53 AM 21.0 °F 14.6 °F 14.0 °F 74% 30.35 in 10.0 mi West 4.6 mph - N/A   Clear
7:53 AM 18.0 °F 8.7 °F 12.0 °F 78% 30.38 in 10.0 mi WSW 6.9 mph - N/A   Clear
8:53 AM 21.0 °F - 14.0 °F 74% 30.41 in 10.0 mi Calm Calm - N/A   Clear
9:53 AM 30.9 °F 25.2 °F 18.0 °F 59% 30.42 in 10.0 mi West 5.8 mph - N/A   Clear
10:53 AM 36.0 °F 32.1 °F 18.0 °F 48% 30.41 in 10.0 mi WSW 4.6 mph - N/A   Clear
11:53 AM 39.9 °F 36.7 °F 17.1 °F 40% 30.39 in 10.0 mi West 4.6 mph - N/A   Clear
12:53 PM 42.1 °F 38.4 °F 12.9 °F 31% 30.35 in 10.0 mi SSW 5.8 mph - N/A   Clear
1:53 PM 45.0 °F 40.6 °F 12.9 °F 27% 30.31 in 10.0 mi SSW 8.1 mph - N/A   Clear
2:53 PM 46.0 °F 41.0 °F 14.0 °F 28% 30.30 in 10.0 mi South 10.4 mph - N/A   Clear
3:53 PM 46.0 °F 39.6 °F 12.9 °F 26% 30.27 in 10.0 mi South 15.0 mph - N/A   Clear
4:53 PM 44.6 °F 37.8 °F 14.0 °F 29% 30.24 in 10.0 mi SSW 15.0 mph - N/A   Clear
5:53 PM 39.0 °F 31.8 °F 15.1 °F 38% 30.29 in 10.0 mi South 11.5 mph - N/A   Clear
6:53 PM 34.0 °F 25.5 °F 16.0 °F 48% 30.29 in 10.0 mi South 11.5 mph - N/A   Clear
7:53 PM 33.1 °F 24.9 °F 15.1 °F 48% 30.32 in 10.0 mi South 10.4 mph - N/A   Clear
8:53 PM 35.1 °F 25.9 °F 14.0 °F 42% 30.31 in 10.0 mi South 13.8 mph - N/A   Clear
9:53 PM 28.9 °F 19.8 °F 14.0 °F 54% 30.29 in 10.0 mi South 10.4 mph - N/A   Clear
10:53 PM 30.0 °F 20.0 °F 12.9 °F 49% 30.27 in 10.0 mi South 12.7 mph - N/A   Clear
11:53 PM 28.9 °F 18.2 °F 12.9 °F 51% 30.25 in 10.0 mi South 13.8 mph - N/A   Clear